Overview Statistics Trail Chart Weather Telemetry Raw packets
 

This is the latest recevied weather packets stored in our database for station/object N0QWM. If no packets are shown the sender has not sent any weather packets the latest 10 day(s).

<< 69 70 71 72 73 74 75 >>
Time Temp. Humidity Pressure Rain* Wind** Luminosity Snow
1788190492 31.67° C 70% 1026.2 hPa 0 mm - 557 W/m² -
1788190189 31.11° C 71% 1026.1 hPa 0 mm - 836 W/m² -
1788189883 30.56° C 73% 1026.2 hPa 0 mm - 803 W/m² -
1788189579 30.56° C 73% 1026 hPa 0 mm - 820 W/m² -
1788189278 31.67° C 72% 1026.2 hPa 0 mm - 763 W/m² -
1788188973 31.67° C 70% 1025.9 hPa 0 mm - 788 W/m² -
1788188673 31.11° C 73% 1026.1 hPa 0 mm - 779 W/m² -
1788188368 31.11° C 72% 1025.9 hPa 0 mm - 730 W/m² -
1788188065 30.56° C 74% 1026.1 hPa 0 mm - 652 W/m² -
1788187760 30° C 76% 1026.1 hPa 0 mm - 580 W/m² -
1788187455 30° C 75% 1026.2 hPa 0 mm - 603 W/m² -
1788187156 30° C 76% 1026 hPa 0 mm - 615 W/m² -
1788186850 30° C 76% 1026.3 hPa 0 mm - 564 W/m² -
1788186547 30° C 77% 1026.1 hPa 0 mm - 502 W/m² -
1788186245 29.44° C 76% 1026.1 hPa 0 mm - 497 W/m² -
1788185936 28.89° C 79% 1026.1 hPa 0 mm - 503 W/m² -
1788185630 28.89° C 80% 1026.2 hPa 0 mm - 482 W/m² -
1788185326 28.33° C 79% 1026.3 hPa 0 mm - 448 W/m² -
1788185020 28.89° C 79% 1026.4 hPa 0 mm - 413 W/m² -
1788184719 28.33° C 82% 1026.2 hPa 0 mm - 367 W/m² -
1788184414 28.33° C 80% 1026.3 hPa 0 mm - 333 W/m² -
1788184109 27.78° C 82% 1026.2 hPa 0 mm - 313 W/m² -
1788183806 27.22° C 84% 1026.2 hPa 0 mm - 309 W/m² -
1788183505 27.22° C 84% 1026.2 hPa 0 mm - 93 W/m² -
1788183218 26.67° C 85% 1026.4 hPa 0 mm - 49 W/m² -

* Rain latest hour (hover to see other rain measurements)
** Current wind speed in m/s (hover to see current wind gust speed)